Tracking 18793 objects as of 25-September-2017
HD Live streaming from Space Station
objects crossing your sky now

OPS 3367 B

Track OPS 3367 B now!
10-day predictions
OPS 3367 B is classified as:


NORAD ID: 735
Int'l Code: 1964-002C
Perigee: 793.9 km
Apogee: 818.8 km
Inclination: 99.0 °
Period: 100.9 minutes
Semi major axis: 7177 km
RCS: 0.3381 m2 (medium)
Launch date: January 19, 1964
Source: United States (US)
Launch site: AIR FORCE WESTERN TEST RANGE (AFWTR)
aabbcc
Your satellite tracking list
Your tracking list is empty





NASA's NSSDC Master Catalog

Two Line Element Set (TLE):
1 00735U 64002C   17268.26010443  .00000007  00000-0  21933-4 0  9990
2 00735  99.0073  26.4480 0017307 147.5518 212.6730 14.27763705791941
Source of the keplerian elements: AFSPC